When you browse on this site, cookies collect data to enhance your experience and personalize the content and advertising you see.
Visit our Privacy Policy to learn more. By continuing to use the site, you agree to this use of cookies and data.
  • en France
  • Liste des pays
  • À 7 jours
  • Température de l'eau
  • Carte satellitaire
  • Carte météo
  • Widgets météo
  • user-avatar
    Se connecter

    Météo par heure à Bafatá

    Ce jour, 16 Juillet, Mardi

    Heure Température Précipitation Vent Pression Humidité
    00:00 +26°C° 0.2 mm 1 m/s 757 mmHg 96%
    01:00 +26°C° 0.2 mm 1 m/s 757 mmHg 96%
    02:00 +24°C° 0.2 mm 0 m/s 756 mmHg 96%
    03:00 +26°C° 0.2 mm 1 m/s 756 mmHg 96%
    04:00 +26°C° 0.2 mm 1 m/s 756 mmHg 96%
    05:00 +26°C° 0 mm 1 m/s 756 mmHg 96%
    06:00 +26°C° 0 mm 1 m/s 756 mmHg 92%
    07:00 +27°C° 0 mm 1 m/s 757 mmHg 88%
    08:00 +26°C° 0 mm 0 m/s 757 mmHg 85%
    09:00 +28°C° 0 mm 0 m/s 757 mmHg 77%
    10:00 +30°C° 0 mm 0 m/s 757 mmHg 70%
    11:00 +32°C° 0 mm 0 m/s 757 mmHg 62%
    12:00 +32°C° 1 mm 0 m/s 757 mmHg 65%
    13:00 +31°C° 1 mm 0 m/s 756 mmHg 69%
    14:00 +30°C° 1 mm 0 m/s 755 mmHg 72%
    15:00 +31°C° 1.5 mm 1 m/s 755 mmHg 75%
    16:00 +31°C° 1.5 mm 2 m/s 755 mmHg 78%
    17:00 +30°C° 1.5 mm 3 m/s 755 mmHg 80%
    18:00 +29°C° 0.7 mm 3 m/s 756 mmHg 84%
    19:00 +28°C° 0.7 mm 2 m/s 757 mmHg 87%
    20:00 +27°C° 0.7 mm 2 m/s 757 mmHg 91%
    21:00 +27°C° 0.3 mm 2 m/s 758 mmHg 92%
    22:00 +26°C° 0.3 mm 1 m/s 758 mmHg 93%
    23:00 +26°C° 0.3 mm 1 m/s 758 mmHg 94%

    Demain, 17 Juillet, Mercredi

    Heure Température Précipitation Vent Pression Humidité
    00:00 +26°C° 1.5 mm 1 m/s 758 mmHg 95%
    01:00 +26°C° 1.5 mm 1 m/s 758 mmHg 95%
    02:00 +26°C° 1.5 mm 1 m/s 758 mmHg 95%
    03:00 +26°C° 3 mm 1 m/s 758 mmHg 96%
    04:00 +25°C° 3 mm 1 m/s 758 mmHg 97%
    05:00 +25°C° 3 mm 1 m/s 758 mmHg 97%
    06:00 +26°C° 0.1 mm 1 m/s 758 mmHg 95%
    07:00 +27°C° 0.1 mm 1 m/s 759 mmHg 92%
    08:00 +27°C° 0.1 mm 1 m/s 759 mmHg 89%
    09:00 +28°C° 0 mm 1 m/s 759 mmHg 85%
    10:00 +29°C° 0 mm 2 m/s 759 mmHg 82%
    11:00 +30°C° 0 mm 2 m/s 759 mmHg 79%
    12:00 +30°C° 1.3 mm 2 m/s 759 mmHg 79%
    13:00 +30°C° 1.3 mm 3 m/s 758 mmHg 80%
    14:00 +30°C° 1.3 mm 3 m/s 758 mmHg 80%
    15:00 +29°C° 1.8 mm 3 m/s 758 mmHg 84%
    16:00 +28°C° 1.8 mm 3 m/s 758 mmHg 88%
    17:00 +27°C° 1.8 mm 2 m/s 758 mmHg 92%
    18:00 +27°C° 0.5 mm 2 m/s 758 mmHg 93%
    19:00 +26°C° 0.5 mm 2 m/s 759 mmHg 94%
    20:00 +26°C° 0.5 mm 2 m/s 759 mmHg 95%
    21:00 +26°C° 0 mm 2 m/s 760 mmHg 95%
    22:00 +26°C° 0 mm 2 m/s 760 mmHg 95%
    23:00 +25°C° 0 mm 2 m/s 760 mmHg 95%

    Après-demain, 18 Juillet, Jeudi

    Heure Température Précipitation Vent Pression Humidité
    00:00 +25°C° 0.1 mm 2 m/s 759 mmHg 96%
    01:00 +25°C° 0.1 mm 1 m/s 759 mmHg 96%
    02:00 +25°C° 0.1 mm 1 m/s 758 mmHg 96%
    03:00 +25°C° 0 mm 1 m/s 758 mmHg 96%
    04:00 +25°C° 0 mm 1 m/s 758 mmHg 96%
    05:00 +25°C° 0 mm 1 m/s 758 mmHg 96%
    06:00 +26°C° 0 mm 1 m/s 759 mmHg 93%
    07:00 +26°C° 0 mm 1 m/s 759 mmHg 90%
    08:00 +27°C° 0 mm 1 m/s 760 mmHg 87%
    09:00 +28°C° 0 mm 1 m/s 760 mmHg 81%
    10:00 +30°C° 0 mm 2 m/s 760 mmHg 74%
    11:00 +31°C° 0 mm 2 m/s 760 mmHg 68%
    12:00 +31°C° 0.3 mm 2 m/s 759 mmHg 68%
    13:00 +31°C° 0.3 mm 2 m/s 758 mmHg 69%
    14:00 +31°C° 0.3 mm 2 m/s 758 mmHg 69%
    15:00 +31°C° 0.3 mm 2 m/s 758 mmHg 72%
    16:00 +31°C° 0.3 mm 2 m/s 757 mmHg 74%
    17:00 +30°C° 0.3 mm 2 m/s 757 mmHg 77%
    18:00 +29°C° 0.7 mm 2 m/s 758 mmHg 81%
    19:00 +28°C° 0.7 mm 2 m/s 758 mmHg 86%
    20:00 +27°C° 0.7 mm 2 m/s 759 mmHg 91%
    21:00 +26°C° 0.2 mm 2 m/s 759 mmHg 92%
    22:00 +26°C° 0.2 mm 2 m/s 759 mmHg 93%
    23:00 +26°C° 0.2 mm 2 m/s 759 mmHg 93%

    19 Juillet, Vendredi

    Heure Température Précipitation Vent Pression Humidité
    00:00 +25°C° 0 mm 2 m/s 759 mmHg 94%
    01:00 +25°C° 0 mm 2 m/s 758 mmHg 95%
    02:00 +25°C° 0 mm 1 m/s 758 mmHg 96%
    03:00 +25°C° 0 mm 2 m/s 758 mmHg 96%
    04:00 +25°C° 0 mm 2 m/s 758 mmHg 95%
    05:00 +25°C° 0 mm 2 m/s 758 mmHg 95%
    06:00 +25°C° 0 mm 2 m/s 758 mmHg 92%
    07:00 +26°C° 0 mm 2 m/s 758 mmHg 89%
    08:00 +27°C° 0 mm 3 m/s 759 mmHg 87%
    09:00 +28°C° 0 mm 2 m/s 759 mmHg 79%
    10:00 +30°C° 0 mm 2 m/s 758 mmHg 71%
    11:00 +31°C° 0 mm 2 m/s 758 mmHg 63%
    12:00 +32°C° 0 mm 2 m/s 758 mmHg 60%
    13:00 +34°C° 0 mm 2 m/s 757 mmHg 58%
    14:00 +34°C° 0 mm 2 m/s 756 mmHg 55%
    15:00 +34°C° 0 mm 2 m/s 756 mmHg 60%
    16:00 +32°C° 0 mm 2 m/s 756 mmHg 64%
    17:00 +31°C° 0 mm 2 m/s 756 mmHg 69%
    18:00 +30°C° 0 mm 3 m/s 756 mmHg 73%
    19:00 +28°C° 0 mm 3 m/s 756 mmHg 77%
    20:00 +27°C° 0 mm 3 m/s 757 mmHg 81%
    21:00 +27°C° 0 mm 3 m/s 757 mmHg 82%
    22:00 +27°C° 0 mm 3 m/s 757 mmHg 83%
    23:00 +26°C° 0 mm 2 m/s 758 mmHg 84%

    20 Juillet, Samedi

    Heure Température Précipitation Vent Pression Humidité
    00:00 +26°C° 0 mm 2 m/s 757 mmHg 85%
    01:00 +25°C° 0 mm 2 m/s 757 mmHg 87%
    02:00 +25°C° 0 mm 1 m/s 757 mmHg 89%
    03:00 +25°C° 0 mm 1 m/s 757 mmHg 89%
    04:00 +25°C° 0 mm 1 m/s 757 mmHg 88%
    05:00 +24°C° 0 mm 1 m/s 757 mmHg 88%
    06:00 +25°C° 0 mm 1 m/s 757 mmHg 86%
    07:00 +26°C° 0 mm 1 m/s 758 mmHg 83%
    08:00 +27°C° 0 mm 2 m/s 758 mmHg 80%
    09:00 +27°C° 0 mm 1 m/s 758 mmHg 78%
    10:00 +28°C° 0 mm 1 m/s 758 mmHg 76%
    11:00 +29°C° 0 mm 1 m/s 758 mmHg 75%
    12:00 +29°C° 0 mm 1 m/s 757 mmHg 72%
    13:00 +30°C° 0 mm 2 m/s 757 mmHg 69%
    14:00 +31°C° 0 mm 2 m/s 756 mmHg 66%
    15:00 +31°C° 0 mm 2 m/s 756 mmHg 67%
    16:00 +31°C° 0 mm 2 m/s 755 mmHg 69%
    17:00 +30°C° 0 mm 2 m/s 755 mmHg 70%
    18:00 +29°C° 0 mm 2 m/s 756 mmHg 74%
    19:00 +28°C° 0 mm 2 m/s 757 mmHg 78%
    20:00 +27°C° 0 mm 1 m/s 757 mmHg 83%
    21:00 +26°C° 0.1 mm 2 m/s 757 mmHg 84%
    22:00 +26°C° 0.1 mm 2 m/s 758 mmHg 85%
    23:00 +26°C° 0.1 mm 2 m/s 758 mmHg 86%

    21 Juillet, Dimanche

    Heure Température Précipitation Vent Pression Humidité
    00:00 +26°C° 0.3 mm 2 m/s 758 mmHg 87%
    01:00 +25°C° 0.3 mm 1 m/s 758 mmHg 89%
    02:00 +25°C° 0.3 mm 1 m/s 757 mmHg 90%
    03:00 +25°C° 0.1 mm 1 m/s 757 mmHg 91%
    04:00 +25°C° 0.1 mm 1 m/s 757 mmHg 92%
    05:00 +22°C° 0.1 mm 0 m/s 757 mmHg 94%
    06:00 +23°C° 0 mm 0 m/s 758 mmHg 90%
    07:00 +27°C° 0 mm 1 m/s 758 mmHg 86%
    08:00 +28°C° 0 mm 1 m/s 759 mmHg 83%
    09:00 +29°C° 0 mm 1 m/s 759 mmHg 78%
    10:00 +30°C° 0 mm 1 m/s 758 mmHg 73%
    11:00 +31°C° 0 mm 2 m/s 758 mmHg 68%
    12:00 +31°C° 0 mm 2 m/s 758 mmHg 66%
    13:00 +32°C° 0 mm 2 m/s 757 mmHg 65%
    14:00 +32°C° 0 mm 2 m/s 757 mmHg 63%
    15:00 +32°C° 0.2 mm 2 m/s 756 mmHg 67%
    16:00 +31°C° 0.2 mm 2 m/s 756 mmHg 71%
    17:00 +31°C° 0.2 mm 2 m/s 756 mmHg 75%
    18:00 +29°C° 0.1 mm 2 m/s 757 mmHg 80%
    19:00 +28°C° 0.1 mm 2 m/s 757 mmHg 85%
    20:00 +27°C° 0.1 mm 2 m/s 758 mmHg 89%
    21:00 +26°C° 2.4 mm 2 m/s 758 mmHg 91%
    22:00 +26°C° 2.4 mm 1 m/s 759 mmHg 93%
    23:00 +26°C° 2.4 mm 1 m/s 759 mmHg 95%
    Voir plus